Year,Month,Day,Hour,Minute,Value (Times are PST for temperature in C)
2013,04,23,00,00,8.60
2013,04,23,00,01,8.60
2013,04,23,00,02,8.60
2013,04,23,00,03,8.60
2013,04,23,00,04,8.60
2013,04,23,00,05,8.60
2013,04,23,00,06,8.60
2013,04,23,00,07,8.60
2013,04,23,00,08,8.60
2013,04,23,00,09,8.60
2013,04,23,00,10,8.70
2013,04,23,00,11,8.70
2013,04,23,00,12,8.60
2013,04,23,00,13,8.60
2013,04,23,00,14,8.60
2013,04,23,00,15,8.60
2013,04,23,00,16,8.60
2013,04,23,00,17,8.50
2013,04,23,00,18,8.50
2013,04,23,00,19,8.50
2013,04,23,00,20,8.40
2013,04,23,00,21,8.40
2013,04,23,00,22,8.40
2013,04,23,00,23,8.40
2013,04,23,00,24,8.40
2013,04,23,00,25,8.40
2013,04,23,00,26,8.40
2013,04,23,00,27,8.30
2013,04,23,00,28,8.30
2013,04,23,00,29,8.30
2013,04,23,00,30,8.30
2013,04,23,00,31,8.30
2013,04,23,00,32,8.30
2013,04,23,00,33,8.30
2013,04,23,00,34,8.30
2013,04,23,00,35,8.30
2013,04,23,00,36,8.30
2013,04,23,00,37,8.30
2013,04,23,00,38,8.30
2013,04,23,00,39,8.30
2013,04,23,00,40,8.30
2013,04,23,00,41,8.30
2013,04,23,00,42,8.30
2013,04,23,00,43,8.30
2013,04,23,00,44,8.30
2013,04,23,00,45,8.30
2013,04,23,00,46,8.30
2013,04,23,00,47,8.30
2013,04,23,00,48,8.30
2013,04,23,00,49,8.30
2013,04,23,00,50,8.30
2013,04,23,00,51,8.30
2013,04,23,00,52,8.20
2013,04,23,00,53,8.20
2013,04,23,00,54,8.20
2013,04,23,00,55,8.20
2013,04,23,00,56,8.20
2013,04,23,00,57,8.20
2013,04,23,00,58,8.20
2013,04,23,00,59,8.20
2013,04,23,01,00,8.20
2013,04,23,01,01,8.20
2013,04,23,01,02,8.10
2013,04,23,01,03,8.10
2013,04,23,01,04,8.10
2013,04,23,01,05,8.10
2013,04,23,01,06,8.10
2013,04,23,01,07,8.10
2013,04,23,01,08,8.10
2013,04,23,01,09,8.00
2013,04,23,01,10,8.00
2013,04,23,01,11,8.00
2013,04,23,01,12,8.00
2013,04,23,01,13,8.00
2013,04,23,01,14,7.90
2013,04,23,01,15,7.90
2013,04,23,01,16,7.90
2013,04,23,01,17,7.90
2013,04,23,01,18,7.80
2013,04,23,01,19,7.80
2013,04,23,01,20,7.70
2013,04,23,01,21,7.70
2013,04,23,01,22,7.60
2013,04,23,01,23,7.60
2013,04,23,01,24,7.60
2013,04,23,01,25,7.50
2013,04,23,01,26,7.40
2013,04,23,01,27,7.40
2013,04,23,01,28,7.30
2013,04,23,01,29,7.30
2013,04,23,01,30,7.30
2013,04,23,01,31,7.20
2013,04,23,01,32,7.20
2013,04,23,01,33,7.10
2013,04,23,01,34,7.10
2013,04,23,01,35,7.10
2013,04,23,01,36,7.10
2013,04,23,01,37,7.10
2013,04,23,01,38,7.10
2013,04,23,01,39,7.10
2013,04,23,01,40,7.10
2013,04,23,01,41,7.00
2013,04,23,01,42,7.00
2013,04,23,01,43,7.00
2013,04,23,01,44,7.00
2013,04,23,01,45,7.00
2013,04,23,01,46,7.00
2013,04,23,01,47,7.10
2013,04,23,01,48,7.10
2013,04,23,01,49,7.10
2013,04,23,01,50,7.10
2013,04,23,01,51,7.10
2013,04,23,01,52,7.10
2013,04,23,01,53,7.10
2013,04,23,01,54,7.10
2013,04,23,01,55,7.10
2013,04,23,01,56,7.10
2013,04,23,01,57,7.10
2013,04,23,01,58,7.10
2013,04,23,01,59,7.10
2013,04,23,02,00,7.10
2013,04,23,02,01,7.10
2013,04,23,02,02,7.10
2013,04,23,02,03,7.10
2013,04,23,02,04,7.10
2013,04,23,02,05,7.10
2013,04,23,02,06,7.10
2013,04,23,02,07,7.20
2013,04,23,02,08,7.20
2013,04,23,02,09,7.20
2013,04,23,02,10,7.20
2013,04,23,02,11,7.20
2013,04,23,02,12,7.20
2013,04,23,02,13,7.30
2013,04,23,02,14,7.30
2013,04,23,02,15,7.30
2013,04,23,02,16,7.30
2013,04,23,02,17,7.30
2013,04,23,02,18,7.30
2013,04,23,02,19,7.30
2013,04,23,02,20,7.30
2013,04,23,02,21,7.30
2013,04,23,02,22,7.30
2013,04,23,02,23,7.30
2013,04,23,02,24,7.20
2013,04,23,02,25,7.20
2013,04,23,02,26,7.20
2013,04,23,02,27,7.20
2013,04,23,02,28,7.20
2013,04,23,02,29,7.20
2013,04,23,02,30,7.20
2013,04,23,02,31,7.20
2013,04,23,02,32,7.20
2013,04,23,02,33,7.20
2013,04,23,02,34,7.20
2013,04,23,02,35,7.20
2013,04,23,02,36,7.20
2013,04,23,02,37,7.20
2013,04,23,02,38,7.20
2013,04,23,02,39,7.20
2013,04,23,02,40,7.20
2013,04,23,02,41,7.20
2013,04,23,02,42,7.20
2013,04,23,02,43,7.20
2013,04,23,02,44,7.20
2013,04,23,02,45,7.10
2013,04,23,02,46,7.10
2013,04,23,02,47,7.10
2013,04,23,02,48,7.10
2013,04,23,02,49,7.10
2013,04,23,02,50,7.10
2013,04,23,02,51,7.00
2013,04,23,02,52,7.00
2013,04,23,02,53,7.00
2013,04,23,02,54,7.00
2013,04,23,02,55,7.00
2013,04,23,02,56,7.00
2013,04,23,02,57,7.00
2013,04,23,02,58,6.90
2013,04,23,02,59,6.90
2013,04,23,03,00,6.80
2013,04,23,03,01,6.80
2013,04,23,03,02,6.70
2013,04,23,03,03,6.70
2013,04,23,03,04,6.70
2013,04,23,03,05,6.60
2013,04,23,03,06,6.60
2013,04,23,03,07,6.60
2013,04,23,03,08,6.50
2013,04,23,03,09,6.50
2013,04,23,03,10,6.50
2013,04,23,03,11,6.50
2013,04,23,03,12,6.50
2013,04,23,03,13,6.40
2013,04,23,03,14,6.40
2013,04,23,03,15,6.40
2013,04,23,03,16,6.40
2013,04,23,03,17,6.40
2013,04,23,03,18,6.40
2013,04,23,03,19,6.40
2013,04,23,03,20,6.40
2013,04,23,03,21,6.40
2013,04,23,03,22,6.40
2013,04,23,03,23,6.40
2013,04,23,03,24,6.40
2013,04,23,03,25,6.40
2013,04,23,03,26,6.40
2013,04,23,03,27,6.30
2013,04,23,03,28,6.30
2013,04,23,03,29,6.30
2013,04,23,03,30,6.30
2013,04,23,03,31,6.20
2013,04,23,03,32,6.20
2013,04,23,03,33,6.20
2013,04,23,03,34,6.20
2013,04,23,03,35,6.10
2013,04,23,03,36,6.10
2013,04,23,03,37,6.10
2013,04,23,03,38,6.00
2013,04,23,03,39,6.00
2013,04,23,03,40,6.00
2013,04,23,03,41,5.90
2013,04,23,03,42,5.90
2013,04,23,03,43,5.90
2013,04,23,03,44,5.90
2013,04,23,03,45,5.90
2013,04,23,03,46,5.90
2013,04,23,03,47,5.90
2013,04,23,03,48,5.90
2013,04,23,03,49,5.90
2013,04,23,03,50,5.90
2013,04,23,03,51,5.90
2013,04,23,03,52,5.90
2013,04,23,03,53,5.90
2013,04,23,03,54,5.90
2013,04,23,03,55,5.90
2013,04,23,03,56,5.90
2013,04,23,03,57,5.90
2013,04,23,03,58,6.00
2013,04,23,03,59,6.00
2013,04,23,04,00,6.00
2013,04,23,04,01,6.10
2013,04,23,04,02,6.10
2013,04,23,04,03,6.10
2013,04,23,04,04,6.10
2013,04,23,04,05,6.10
2013,04,23,04,06,6.10
2013,04,23,04,07,6.10
2013,04,23,04,08,6.10
2013,04,23,04,09,6.00
2013,04,23,04,10,6.00
2013,04,23,04,11,5.90
2013,04,23,04,12,5.90
2013,04,23,04,13,5.90
2013,04,23,04,14,5.80
2013,04,23,04,15,5.80
2013,04,23,04,16,5.70
2013,04,23,04,17,5.70
2013,04,23,04,18,5.70
2013,04,23,04,19,5.60
2013,04,23,04,20,5.50
2013,04,23,04,21,5.40
2013,04,23,04,22,5.30
2013,04,23,04,23,5.30
2013,04,23,04,24,5.20
2013,04,23,04,25,5.20
2013,04,23,04,26,5.10
2013,04,23,04,27,5.10
2013,04,23,04,28,5.10
2013,04,23,04,29,5.00
2013,04,23,04,30,5.00
2013,04,23,04,31,4.90
2013,04,23,04,32,4.90
2013,04,23,04,33,4.90
2013,04,23,04,34,4.90
2013,04,23,04,35,4.90
2013,04,23,04,36,4.90
2013,04,23,04,37,4.90
2013,04,23,04,38,4.90
2013,04,23,04,39,5.00
2013,04,23,04,40,5.00
2013,04,23,04,41,5.10
2013,04,23,04,42,5.10
2013,04,23,04,43,5.10
2013,04,23,04,44,5.10
2013,04,23,04,45,5.10
2013,04,23,04,46,5.10
2013,04,23,04,47,5.20
2013,04,23,04,48,5.20
2013,04,23,04,49,5.20
2013,04,23,04,50,5.20
2013,04,23,04,51,5.30
2013,04,23,04,52,5.30
2013,04,23,04,53,5.30
2013,04,23,04,54,5.40
2013,04,23,04,55,5.40
2013,04,23,04,56,5.50
2013,04,23,04,57,5.60
2013,04,23,04,58,5.60
2013,04,23,04,59,5.70
2013,04,23,05,00,5.80
2013,04,23,05,01,5.80
2013,04,23,05,02,5.80
2013,04,23,05,03,5.80
2013,04,23,05,04,5.80
2013,04,23,05,05,5.80
2013,04,23,05,06,5.80
2013,04,23,05,07,5.90
2013,04,23,05,08,6.00
2013,04,23,05,09,6.10
2013,04,23,05,10,6.20
2013,04,23,05,11,6.30
2013,04,23,05,12,6.30
2013,04,23,05,13,6.40
2013,04,23,05,14,6.40
2013,04,23,05,15,6.40
2013,04,23,05,16,6.40
2013,04,23,05,17,6.40
2013,04,23,05,18,6.40
2013,04,23,05,19,6.40
2013,04,23,05,20,6.30
2013,04,23,05,21,6.30
2013,04,23,05,22,6.30
2013,04,23,05,23,6.30
2013,04,23,05,24,6.30
2013,04,23,05,25,6.20
2013,04,23,05,26,6.20
2013,04,23,05,27,6.20
2013,04,23,05,28,6.20
2013,04,23,05,29,6.20
2013,04,23,05,30,6.20
2013,04,23,05,31,6.20
2013,04,23,05,32,6.20
2013,04,23,05,33,6.20
2013,04,23,05,34,6.20
2013,04,23,05,35,6.20
2013,04,23,05,36,6.10
2013,04,23,05,37,6.00
2013,04,23,05,38,6.00
2013,04,23,05,39,5.90
2013,04,23,05,40,5.80
2013,04,23,05,41,5.70
2013,04,23,05,42,5.50
2013,04,23,05,43,5.40
2013,04,23,05,44,5.20
2013,04,23,05,45,5.10
2013,04,23,05,46,5.00
2013,04,23,05,47,4.90
2013,04,23,05,48,4.80
2013,04,23,05,49,4.70
2013,04,23,05,50,4.70
2013,04,23,05,51,4.60
2013,04,23,05,52,4.60
2013,04,23,05,53,4.60
2013,04,23,05,54,4.60
2013,04,23,05,55,4.60
2013,04,23,05,56,4.50
2013,04,23,05,57,4.50
2013,04,23,05,58,4.50
2013,04,23,05,59,4.60
2013,04,23,06,00,4.60
2013,04,23,06,01,4.60
2013,04,23,06,02,4.60
2013,04,23,06,03,4.60
2013,04,23,06,04,4.70
2013,04,23,06,05,4.70
2013,04,23,06,06,4.70
2013,04,23,06,07,4.80
2013,04,23,06,08,4.80
2013,04,23,06,09,4.80
2013,04,23,06,10,4.90
2013,04,23,06,11,5.00
2013,04,23,06,12,5.00
2013,04,23,06,13,5.10
2013,04,23,06,14,5.20
2013,04,23,06,15,5.30
2013,04,23,06,16,5.40
2013,04,23,06,17,5.50
2013,04,23,06,18,5.50
2013,04,23,06,19,5.60
2013,04,23,06,20,5.70
2013,04,23,06,21,5.70
2013,04,23,06,22,5.80
2013,04,23,06,23,5.80
2013,04,23,06,24,5.80
2013,04,23,06,25,5.90
2013,04,23,06,26,5.90
2013,04,23,06,27,6.00
2013,04,23,06,28,6.10
2013,04,23,06,29,6.10
2013,04,23,06,30,6.20
2013,04,23,06,31,6.20
2013,04,23,06,32,6.30
2013,04,23,06,33,6.30
2013,04,23,06,34,6.30
2013,04,23,06,35,6.40
2013,04,23,06,36,6.40
2013,04,23,06,37,6.40
2013,04,23,06,38,6.40
2013,04,23,06,39,6.40
2013,04,23,06,40,6.40
2013,04,23,06,41,6.40
2013,04,23,06,42,6.40
2013,04,23,06,43,6.40
2013,04,23,06,44,6.40
2013,04,23,06,45,6.40
2013,04,23,06,46,6.40
2013,04,23,06,47,6.40
2013,04,23,06,48,6.50
2013,04,23,06,49,6.50
2013,04,23,06,50,6.50
2013,04,23,06,51,6.50
2013,04,23,06,52,6.50
2013,04,23,06,53,6.60
2013,04,23,06,54,6.60
2013,04,23,06,55,6.60
2013,04,23,06,56,6.70
2013,04,23,06,57,6.70
2013,04,23,06,58,6.70
2013,04,23,06,59,6.80
2013,04,23,07,00,6.80
2013,04,23,07,01,6.80
2013,04,23,07,02,6.80
2013,04,23,07,03,6.90
2013,04,23,07,04,6.90
2013,04,23,07,05,6.90
2013,04,23,07,06,6.90
2013,04,23,07,07,7.00
2013,04,23,07,08,7.00
2013,04,23,07,09,7.00
2013,04,23,07,10,7.00
2013,04,23,07,11,7.10
2013,04,23,07,12,7.10
2013,04,23,07,13,7.10
2013,04,23,07,14,7.10
2013,04,23,07,15,7.10
2013,04,23,07,16,7.10
2013,04,23,07,17,7.10
2013,04,23,07,18,7.00
2013,04,23,07,19,7.00
2013,04,23,07,20,6.90
2013,04,23,07,21,6.90
2013,04,23,07,22,6.90
2013,04,23,07,23,6.80
2013,04,23,07,24,6.80
2013,04,23,07,25,6.80
2013,04,23,07,26,6.80
2013,04,23,07,27,6.70
2013,04,23,07,28,6.70
2013,04,23,07,29,6.70
2013,04,23,07,30,6.70
2013,04,23,07,31,6.70
2013,04,23,07,32,6.70
2013,04,23,07,33,6.70
2013,04,23,07,34,6.70
2013,04,23,07,35,6.70
2013,04,23,07,36,6.60
2013,04,23,07,37,6.60
2013,04,23,07,38,6.50
2013,04,23,07,39,6.40
2013,04,23,07,40,6.30
2013,04,23,07,41,6.20
2013,04,23,07,42,6.20
2013,04,23,07,43,6.10
2013,04,23,07,44,6.10
2013,04,23,07,45,6.10
2013,04,23,07,46,6.10
2013,04,23,07,47,6.10
2013,04,23,07,48,6.10
2013,04,23,07,49,6.10
2013,04,23,07,50,6.10
2013,04,23,07,51,6.10
2013,04,23,07,52,6.10
2013,04,23,07,53,6.10
2013,04,23,07,54,6.00
2013,04,23,07,55,6.00
2013,04,23,07,56,6.00
2013,04,23,07,57,6.00
2013,04,23,07,58,6.00
2013,04,23,07,59,6.00
2013,04,23,08,00,6.00
2013,04,23,08,01,6.00
2013,04,23,08,02,6.00
2013,04,23,08,03,6.10
2013,04,23,08,04,6.10
2013,04,23,08,05,6.10
2013,04,23,08,06,6.20
2013,04,23,08,07,6.20
2013,04,23,08,08,6.20
2013,04,23,08,09,6.20
2013,04,23,08,10,6.30
2013,04,23,08,11,6.30
2013,04,23,08,12,6.30
2013,04,23,08,13,6.40
2013,04,23,08,14,6.40
2013,04,23,08,15,6.40
2013,04,23,08,16,6.50
2013,04,23,08,17,6.50
2013,04,23,08,18,6.60
2013,04,23,08,19,6.60
2013,04,23,08,20,6.70
2013,04,23,08,21,6.70
2013,04,23,08,22,6.80
2013,04,23,08,23,6.80
2013,04,23,08,24,6.90
2013,04,23,08,25,6.90
2013,04,23,08,26,7.00
2013,04,23,08,27,7.00
2013,04,23,08,28,7.10
2013,04,23,08,29,7.20
2013,04,23,08,30,7.20
2013,04,23,08,31,7.30
2013,04,23,08,32,7.40
2013,04,23,08,33,7.40
2013,04,23,08,34,7.50
2013,04,23,08,35,7.60
2013,04,23,08,36,7.60
2013,04,23,08,37,7.70
2013,04,23,08,38,7.70
2013,04,23,08,39,7.70
2013,04,23,08,40,7.80
2013,04,23,08,41,7.80
2013,04,23,08,42,7.80
2013,04,23,08,43,7.80
2013,04,23,08,44,7.80
2013,04,23,08,45,7.80
2013,04,23,08,46,7.80
2013,04,23,08,47,7.80
2013,04,23,08,48,7.80
2013,04,23,08,49,7.80
2013,04,23,08,50,7.80
2013,04,23,08,51,7.80
2013,04,23,08,52,7.80
2013,04,23,08,53,7.80
2013,04,23,08,54,7.80
2013,04,23,08,55,7.80
2013,04,23,08,56,7.80
2013,04,23,08,57,7.80
2013,04,23,08,58,7.80
2013,04,23,08,59,7.80
2013,04,23,09,00,7.80
2013,04,23,09,01,7.80
2013,04,23,09,02,7.90
2013,04,23,09,03,7.90
2013,04,23,09,04,7.90
2013,04,23,09,05,7.90
2013,04,23,09,06,8.00
2013,04,23,09,07,8.00
2013,04,23,09,08,8.10
2013,04,23,09,09,8.10
2013,04,23,09,10,8.10
2013,04,23,09,11,8.10
2013,04,23,09,12,8.10
2013,04,23,09,13,8.20
2013,04,23,09,14,8.20
2013,04,23,09,15,8.20
2013,04,23,09,16,8.20
2013,04,23,09,17,8.20
2013,04,23,09,18,8.30
2013,04,23,09,19,8.30
2013,04,23,09,20,8.30
2013,04,23,09,21,8.40
2013,04,23,09,22,8.40
2013,04,23,09,23,8.40
2013,04,23,09,24,8.50
2013,04,23,09,25,8.50
2013,04,23,09,26,8.60
2013,04,23,09,27,8.60
2013,04,23,09,28,8.60
2013,04,23,09,29,8.70
2013,04,23,09,30,8.80
2013,04,23,09,31,8.80
2013,04,23,09,32,8.80
2013,04,23,09,33,8.80
2013,04,23,09,34,8.80
2013,04,23,09,35,8.90
2013,04,23,09,36,8.90
2013,04,23,09,37,8.90
2013,04,23,09,38,8.90
2013,04,23,09,39,8.90
2013,04,23,09,40,9.00
2013,04,23,09,41,9.00
2013,04,23,09,42,9.10
2013,04,23,09,43,9.10
2013,04,23,09,44,9.20
2013,04,23,09,45,9.20
2013,04,23,09,46,9.30
2013,04,23,09,47,9.30
2013,04,23,09,48,9.40
2013,04,23,09,49,9.50
2013,04,23,09,50,9.60
2013,04,23,09,51,9.70
2013,04,23,09,52,9.80
2013,04,23,09,53,9.80
2013,04,23,09,54,9.80
2013,04,23,09,55,9.90
2013,04,23,09,56,10.00
2013,04,23,09,57,10.10
2013,04,23,09,58,10.10
2013,04,23,09,59,10.20
2013,04,23,10,00,10.20
2013,04,23,10,01,10.10
2013,04,23,10,02,10.10
2013,04,23,10,03,10.10
2013,04,23,10,04,10.10
2013,04,23,10,05,10.10
2013,04,23,10,06,10.10
2013,04,23,10,07,10.10
2013,04,23,10,08,10.10
2013,04,23,10,09,10.10
2013,04,23,10,10,10.10
2013,04,23,10,11,10.10
2013,04,23,10,12,10.20
2013,04,23,10,13,10.20
2013,04,23,10,14,10.10
2013,04,23,10,15,10.10
2013,04,23,10,16,10.10
2013,04,23,10,17,10.10
2013,04,23,10,18,10.20
2013,04,23,10,19,10.20
2013,04,23,10,20,10.20
2013,04,23,10,21,10.10
2013,04,23,10,22,10.10
2013,04,23,10,23,10.10
2013,04,23,10,24,10.10
2013,04,23,10,25,10.10
2013,04,23,10,26,10.10
2013,04,23,10,27,10.20
2013,04,23,10,28,10.20
2013,04,23,10,29,10.20
2013,04,23,10,30,10.30
2013,04,23,10,31,10.30
2013,04,23,10,32,10.30
2013,04,23,10,33,10.20
2013,04,23,10,34,10.20
2013,04,23,10,35,10.20
2013,04,23,10,36,10.20
2013,04,23,10,37,10.20
2013,04,23,10,38,10.10
2013,04,23,10,39,10.10
2013,04,23,10,40,10.10
2013,04,23,10,41,10.10
2013,04,23,10,42,10.00
2013,04,23,10,43,10.00
2013,04,23,10,44,10.00
2013,04,23,10,45,10.00
2013,04,23,10,46,9.90
2013,04,23,10,47,9.90
2013,04,23,10,48,9.90
2013,04,23,10,49,9.80
2013,04,23,10,50,9.80
2013,04,23,10,51,9.80
2013,04,23,10,52,9.70
2013,04,23,10,53,9.60
2013,04,23,10,54,9.60
2013,04,23,10,55,9.50
2013,04,23,10,56,9.50
2013,04,23,10,57,9.50
2013,04,23,10,58,9.40
2013,04,23,10,59,9.40
2013,04,23,11,00,9.40
2013,04,23,11,01,9.40
2013,04,23,11,02,9.30
2013,04,23,11,03,9.30
2013,04,23,11,04,9.30
2013,04,23,11,05,9.30
2013,04,23,11,06,9.30
2013,04,23,11,07,9.30
2013,04,23,11,08,9.30
2013,04,23,11,09,9.30
2013,04,23,11,10,9.30
2013,04,23,11,11,9.30
2013,04,23,11,12,9.20
2013,04,23,11,13,9.20
2013,04,23,11,14,9.10
2013,04,23,11,15,9.00
2013,04,23,11,16,9.00
2013,04,23,11,17,8.90
2013,04,23,11,18,8.90
2013,04,23,11,19,8.80
2013,04,23,11,20,8.80
2013,04,23,11,21,8.80
2013,04,23,11,22,8.80
2013,04,23,11,23,8.80
2013,04,23,11,24,8.80
2013,04,23,11,25,8.90
2013,04,23,11,26,9.00
2013,04,23,11,27,9.00
2013,04,23,11,28,9.10
2013,04,23,11,29,9.10
2013,04,23,11,30,9.10
2013,04,23,11,31,9.10
2013,04,23,11,32,9.10
2013,04,23,11,33,9.20
2013,04,23,11,34,9.20
2013,04,23,11,35,9.30
2013,04,23,11,36,9.30
2013,04,23,11,37,9.40
2013,04,23,11,38,9.50
2013,04,23,11,39,9.60
2013,04,23,11,40,9.70
2013,04,23,11,41,9.80
2013,04,23,11,42,9.80
2013,04,23,11,43,9.80
2013,04,23,11,44,9.80
2013,04,23,11,45,9.80
2013,04,23,11,46,9.90
2013,04,23,11,47,10.00
2013,04,23,11,48,10.00
2013,04,23,11,49,10.00
2013,04,23,11,50,10.00
2013,04,23,11,51,10.10
2013,04,23,11,52,10.10
2013,04,23,11,53,10.10
2013,04,23,11,54,10.10
2013,04,23,11,55,10.20
2013,04,23,11,56,10.20
2013,04,23,11,57,10.20
2013,04,23,11,58,10.30
2013,04,23,11,59,10.30
2013,04,23,12,00,10.30
2013,04,23,12,01,10.30
2013,04,23,12,02,10.40
2013,04,23,12,03,10.40
2013,04,23,12,04,10.40
2013,04,23,12,05,10.40
2013,04,23,12,06,10.40
2013,04,23,12,07,10.40
2013,04,23,12,08,10.40
2013,04,23,12,09,10.40
2013,04,23,12,10,10.40
2013,04,23,12,11,10.40
2013,04,23,12,12,10.30
2013,04,23,12,13,10.40
2013,04,23,12,14,10.50
2013,04,23,12,15,10.50
2013,04,23,12,16,10.60
2013,04,23,12,17,10.70
2013,04,23,12,18,10.80
2013,04,23,12,19,10.90
2013,04,23,12,20,11.00
2013,04,23,12,21,11.20
2013,04,23,12,22,11.20
2013,04,23,12,23,11.30
2013,04,23,12,24,11.40
2013,04,23,12,25,11.40
2013,04,23,12,26,11.40
2013,04,23,12,27,11.40
2013,04,23,12,28,11.40
2013,04,23,12,29,11.50
2013,04,23,12,30,11.50
2013,04,23,12,31,11.50
2013,04,23,12,32,11.50
2013,04,23,12,33,11.40
2013,04,23,12,34,11.40
2013,04,23,12,35,11.40
2013,04,23,12,36,11.30
2013,04,23,12,37,11.30
2013,04,23,12,38,11.40
2013,04,23,12,39,11.40
2013,04,23,12,40,11.40
2013,04,23,12,41,11.40
2013,04,23,12,42,11.40
2013,04,23,12,43,11.40
2013,04,23,12,44,11.30
2013,04,23,12,45,11.30
2013,04,23,12,46,11.30
2013,04,23,12,47,11.30
2013,04,23,12,48,11.30
2013,04,23,12,49,11.30
2013,04,23,12,50,11.30
2013,04,23,12,51,11.40
2013,04,23,12,52,11.50
2013,04,23,12,53,11.70
2013,04,23,12,54,11.80
2013,04,23,12,55,11.80
2013,04,23,12,56,11.90
2013,04,23,12,57,11.90
2013,04,23,12,58,12.00
2013,04,23,12,59,12.00
2013,04,23,13,00,12.00
2013,04,23,13,01,12.00
2013,04,23,13,02,11.90
2013,04,23,13,03,11.90
2013,04,23,13,04,11.80
2013,04,23,13,05,11.80
2013,04,23,13,06,11.80
2013,04,23,13,07,11.80
2013,04,23,13,08,11.80
2013,04,23,13,09,11.80
2013,04,23,13,10,11.80
2013,04,23,13,11,11.90
2013,04,23,13,12,11.90
2013,04,23,13,13,12.00
2013,04,23,13,14,12.00
2013,04,23,13,15,12.00
2013,04,23,13,16,12.10
2013,04,23,13,17,12.20
2013,04,23,13,18,12.20
2013,04,23,13,19,12.20
2013,04,23,13,20,12.20
2013,04,23,13,21,12.30
2013,04,23,13,22,12.40
2013,04,23,13,23,12.50
2013,04,23,13,24,12.50
2013,04,23,13,25,12.70
2013,04,23,13,26,12.80
2013,04,23,13,27,12.80
2013,04,23,13,28,12.80
2013,04,23,13,29,12.80
2013,04,23,13,30,12.80
2013,04,23,13,31,12.70
2013,04,23,13,32,12.80
2013,04,23,13,33,12.80
2013,04,23,13,34,12.70
2013,04,23,13,35,12.70
2013,04,23,13,36,12.80
2013,04,23,13,37,12.80
2013,04,23,13,38,12.90
2013,04,23,13,39,12.90
2013,04,23,13,40,12.90
2013,04,23,13,41,12.90
2013,04,23,13,42,12.80
2013,04,23,13,43,12.90
2013,04,23,13,44,12.90
2013,04,23,13,45,12.90
2013,04,23,13,46,12.90
2013,04,23,13,47,13.00
2013,04,23,13,48,13.00
2013,04,23,13,49,13.00
2013,04,23,13,50,13.10
2013,04,23,13,51,13.10
2013,04,23,13,52,13.20
2013,04,23,13,53,13.30
2013,04,23,13,54,13.40
2013,04,23,13,55,13.40
2013,04,23,13,56,13.50
2013,04,23,13,57,13.60
2013,04,23,13,58,13.70
2013,04,23,13,59,13.80
2013,04,23,14,00,13.90
2013,04,23,14,01,13.90
2013,04,23,14,02,13.90
2013,04,23,14,03,13.80
2013,04,23,14,04,13.80
2013,04,23,14,05,13.80
2013,04,23,14,06,13.80
2013,04,23,14,07,13.80
2013,04,23,14,08,13.70
2013,04,23,14,09,13.60
2013,04,23,14,10,13.50
2013,04,23,14,11,13.40
2013,04,23,14,12,13.40
2013,04,23,14,13,13.40
2013,04,23,14,14,13.40
2013,04,23,14,15,13.40
2013,04,23,14,16,13.40
2013,04,23,14,17,13.40
2013,04,23,14,18,13.40
2013,04,23,14,19,13.40
2013,04,23,14,20,13.40
2013,04,23,14,21,13.40
2013,04,23,14,22,13.50
2013,04,23,14,23,13.50
2013,04,23,14,24,13.60
2013,04,23,14,25,13.60
2013,04,23,14,26,13.70
2013,04,23,14,27,13.70
2013,04,23,14,28,13.70
2013,04,23,14,29,13.80
2013,04,23,14,30,13.90
2013,04,23,14,31,14.00
2013,04,23,14,32,14.00
2013,04,23,14,33,14.10
2013,04,23,14,34,14.10
2013,04,23,14,35,14.10
2013,04,23,14,36,14.00
2013,04,23,14,37,14.00
2013,04,23,14,38,13.90
2013,04,23,14,39,13.90
2013,04,23,14,40,13.90
2013,04,23,14,41,13.80
2013,04,23,14,42,13.90
2013,04,23,14,43,13.90
2013,04,23,14,44,13.90
2013,04,23,14,45,14.00
2013,04,23,14,46,14.10
2013,04,23,14,47,14.00
2013,04,23,14,48,14.10
2013,04,23,14,49,14.10
2013,04,23,14,50,14.10
2013,04,23,14,51,14.10
2013,04,23,14,52,14.10
2013,04,23,14,53,14.20
2013,04,23,14,54,14.20
2013,04,23,14,55,14.20
2013,04,23,14,56,14.20
2013,04,23,14,57,14.20
2013,04,23,14,58,14.20
2013,04,23,14,59,14.10
2013,04,23,15,00,14.10
2013,04,23,15,01,14.00
2013,04,23,15,02,14.00
2013,04,23,15,03,14.10
2013,04,23,15,04,14.30
2013,04,23,15,05,14.40
2013,04,23,15,06,14.50
2013,04,23,15,07,14.60
2013,04,23,15,08,14.70
2013,04,23,15,09,14.70
2013,04,23,15,10,14.60
2013,04,23,15,11,14.50
2013,04,23,15,12,14.40
2013,04,23,15,13,14.30
2013,04,23,15,14,14.30
2013,04,23,15,15,14.30
2013,04,23,15,16,14.40
2013,04,23,15,17,14.40
2013,04,23,15,18,14.40
2013,04,23,15,19,14.50
2013,04,23,15,20,14.60
2013,04,23,15,21,14.60
2013,04,23,15,22,14.60
2013,04,23,15,23,14.60
2013,04,23,15,24,14.50
2013,04,23,15,25,14.40
2013,04,23,15,26,14.40
2013,04,23,15,27,14.40
2013,04,23,15,28,14.30
2013,04,23,15,29,14.30
2013,04,23,15,30,14.30
2013,04,23,15,31,14.30
2013,04,23,15,32,14.30
2013,04,23,15,33,14.30
2013,04,23,15,34,14.20
2013,04,23,15,35,14.20
2013,04,23,15,36,14.30
2013,04,23,15,37,14.40
2013,04,23,15,38,14.50
2013,04,23,15,39,14.40
2013,04,23,15,40,14.30
2013,04,23,15,41,14.30
2013,04,23,15,42,14.30
2013,04,23,15,43,14.30
2013,04,23,15,44,14.20
2013,04,23,15,45,14.20
2013,04,23,15,46,14.20
2013,04,23,15,47,14.20
2013,04,23,15,48,14.20
2013,04,23,15,49,14.30
2013,04,23,15,50,14.40
2013,04,23,15,51,14.40
2013,04,23,15,52,14.40
2013,04,23,15,53,14.30
2013,04,23,15,54,14.30
2013,04,23,15,55,14.30
2013,04,23,15,56,14.30
2013,04,23,15,57,14.30
2013,04,23,15,58,14.30
2013,04,23,15,59,14.30
2013,04,23,16,00,14.30
2013,04,23,16,01,14.30
2013,04,23,16,02,14.30
2013,04,23,16,03,14.30
2013,04,23,16,04,14.40
2013,04,23,16,05,14.40
2013,04,23,16,06,14.50
2013,04,23,16,07,14.60
2013,04,23,16,08,14.60
2013,04,23,16,09,14.60
2013,04,23,16,10,14.60
2013,04,23,16,11,14.50
2013,04,23,16,12,14.40
2013,04,23,16,13,14.30
2013,04,23,16,14,14.30
2013,04,23,16,15,14.30
2013,04,23,16,16,14.30
2013,04,23,16,17,14.30
2013,04,23,16,18,14.30
2013,04,23,16,19,14.30
2013,04,23,16,20,14.20
2013,04,23,16,21,14.20
2013,04,23,16,22,14.20
2013,04,23,16,23,14.20
2013,04,23,16,24,14.30
2013,04,23,16,25,14.30
2013,04,23,16,26,14.30
2013,04,23,16,27,14.30
2013,04,23,16,28,14.30
2013,04,23,16,29,14.20
2013,04,23,16,30,14.20
2013,04,23,16,31,14.30
2013,04,23,16,32,14.30
2013,04,23,16,33,14.30
2013,04,23,16,34,14.30
2013,04,23,16,35,14.20
2013,04,23,16,36,14.20
2013,04,23,16,37,14.20
2013,04,23,16,38,14.20
2013,04,23,16,39,14.20
2013,04,23,16,40,14.20
2013,04,23,16,41,14.20
2013,04,23,16,42,14.10
2013,04,23,16,43,14.10
2013,04,23,16,44,14.10
2013,04,23,16,45,14.10
2013,04,23,16,46,14.10
2013,04,23,16,47,14.10
2013,04,23,16,48,14.10
2013,04,23,16,49,14.10
2013,04,23,16,50,14.10
2013,04,23,16,51,14.20
2013,04,23,16,52,14.10
2013,04,23,16,53,14.10
2013,04,23,16,54,14.00
2013,04,23,16,55,14.00
2013,04,23,16,56,14.10
2013,04,23,16,57,14.20
2013,04,23,16,58,14.20
2013,04,23,16,59,14.20
2013,04,23,17,00,14.20
2013,04,23,17,01,14.20
2013,04,23,17,02,14.20
2013,04,23,17,03,14.10
2013,04,23,17,04,14.20
2013,04,23,17,05,14.20
2013,04,23,17,06,14.30
2013,04,23,17,07,14.30
2013,04,23,17,08,14.30
2013,04,23,17,09,14.30
2013,04,23,17,10,14.20
2013,04,23,17,11,14.20
2013,04,23,17,12,14.20
2013,04,23,17,13,14.20
2013,04,23,17,14,14.20
2013,04,23,17,15,14.20
2013,04,23,17,16,14.20
2013,04,23,17,17,14.20
2013,04,23,17,18,14.30
2013,04,23,17,19,14.40
2013,04,23,17,20,14.40
2013,04,23,17,21,14.40
2013,04,23,17,22,14.50
2013,04,23,17,23,14.50
2013,04,23,17,24,14.40
2013,04,23,17,25,14.40
2013,04,23,17,26,14.40
2013,04,23,17,27,14.40
2013,04,23,17,28,14.40
2013,04,23,17,29,14.30
2013,04,23,17,30,14.30
2013,04,23,17,31,14.30
2013,04,23,17,32,14.30
2013,04,23,17,33,14.30
2013,04,23,17,34,14.30
2013,04,23,17,35,14.30
2013,04,23,17,36,14.30
2013,04,23,17,37,14.30
2013,04,23,17,38,14.20
2013,04,23,17,39,14.20
2013,04,23,17,40,14.20
2013,04,23,17,41,14.30
2013,04,23,17,42,14.30
2013,04,23,17,43,14.30
2013,04,23,17,44,14.40
2013,04,23,17,45,14.40
2013,04,23,17,46,14.50
2013,04,23,17,47,14.50
2013,04,23,17,48,14.60